[[{"header":{"parameterUnit":"m.s-1","parameterCategory":1,"la1":30.2991,"la2":30.254,"lo1":-89.0895,"lo2":-89.0444,"dy":0.0017,"dx":0.0017,"nx":28,"ny":28,"refTime":"2024-05-26T21:00:00:Z","depth":0,"parameterNumber":2,"parameterNumberName":"U-component_of_WINDS"},"data":[0,0,0,0,0,0,0,0,0,0,0,0,0,0,0,0,0,0,0,0,0,0,0,0,0,0,0,0,0,0,0,0,0,0,0,0,0,0,0,0,0,0,0,0,0,0,0,0,0,0,0,0,0,0,0,0,0,0,3.255,3.255,0,3.2623,3.2624,3.2625,3.2574,3.2572,3.257,3.2567,3.2643,3.2647,3.2651,0,0,0,0,0,0,0,0,0,0,0,0,0,3.2363,3.2366,3.255,3.255,3.2551,3.2623,3.2624,3.2625,3.2575,3.2572,3.2569,3.2566,3.2642,3.2646,3.2651,0,0,0,0,0,0,0,0,0,0,0,0,0,3.2441,3.2368,3.2549,3.2535,3.2534,3.2623,3.2624,3.2626,3.2575,3.2572,3.2568,3.2565,3.264,3.2646,3.2652,3.276,0,0,3.2671,3.2674,0,0,0,0,0,0,0,0,3.2437,3.2448,3.2536,3.2536,3.2535,3.2586,3.2586,3.2671,3.2576,3.256,3.2567,3.2563,3.2627,3.2634,3.2655,3.2763,3.2766,3.2672,3.2676,3.2678,3.268,0,0,0,0,0,0,0,3.2431,3.2444,3.2579,3.2537,3.2537,3.2524,3.2531,3.2602,3.2612,3.2561,3.2557,3.2567,3.2626,3.2649,3.2657,3.2767,3.2672,3.2677,3.2681,3.2683,3.2964,3.2967,0,0,0,0,0,0,3.2427,3.244,3.2576,3.2581,3.2477,3.253,3.2538,3.2573,3.2611,3.2613,3.257,3.2564,3.264,3.265,3.2659,3.2785,3.2678,3.2684,3.2688,3.296,3.2965,3.2969,0,0,0,0,0,0,3.2424,3.244,3.2573,3.251,3.2526,3.2537,3.2577,3.2577,3.26,3.2617,3.2619,3.2592,3.2638,3.265,3.2734,3.2787,3.2687,3.2692,3.2956,3.2962,3.2967,3.3038,0,0,0,0,0,0,3.2418,3.2439,3.248,3.2511,3.2529,3.2648,3.258,3.2581,3.2611,3.2604,3.2639,3.2641,3.2636,3.2725,3.274,3.2793,3.2697,3.2951,3.2958,3.2965,3.3031,3.3046,3.3058,0,0,0,0,0,3.2412,3.2498,3.2483,3.2499,3.2581,3.2651,3.2661,3.2654,3.2615,3.2656,3.2667,3.264,3.2779,3.2734,3.2751,3.2807,3.2948,3.2956,3.2964,3.3025,3.3043,3.3058,0,0,0,0,0,0,3.2474,3.2502,3.2485,3.2584,3.2616,3.2642,3.2694,3.2674,3.2717,3.2709,3.2699,3.2707,3.2794,3.2809,3.2759,3.2911,3.2857,3.2869,3.2898,3.2914,3.2928,3.2921,3.2703,0,0,0,0,0,3.2499,3.2553,3.2575,3.266,3.2677,3.2683,3.2713,3.2705,3.2737,3.275,3.2767,3.2799,3.285,3.2883,3.2931,3.3034,3.3039,3.308,3.3094,3.3105,3.3114,3.3167,3.3184,3.2996,3.2996,3.2996,0,0,3.2551,3.2573,3.2609,3.2673,3.2697,3.2752,3.2695,3.2757,3.2797,3.276,3.2839,3.2853,3.2888,3.2981,3.3022,3.2996,3.3168,3.3115,3.3124,3.3128,3.3177,3.3195,3.3211,3.3002,3.3001,3.3,0,0,3.2674,3.2698,3.277,3.2794,3.283,3.2833,3.2851,3.2881,3.2888,3.2968,3.294,3.2988,3.3076,3.3101,3.3126,3.3257,3.3232,3.3273,3.3342,3.3393,3.3408,3.3421,3.3465,3.3481,3.3284,3.3284,3.3284,0,3.2735,3.2818,3.281,3.2873,3.2901,3.2869,3.2941,3.2965,3.3015,3.3035,3.3005,3.3113,3.3135,3.3231,3.3263,3.3285,3.3303,3.3268,3.3407,3.342,3.3432,3.3473,3.349,3.3288,3.3288,3.3287,3.3287,0,3.2889,3.2947,3.3001,3.3048,3.3083,3.3151,3.3151,3.3188,3.3176,3.3182,3.3263,3.3287,3.3338,3.3361,3.3352,3.3456,3.3438,3.3408,3.3353,3.3454,3.3493,3.3509,3.3295,3.3293,3.3292,3.3291,0,0,3.3052,3.3094,3.3113,3.3133,3.317,3.3215,3.328,3.333,3.3359,3.3395,3.3448,3.3523,3.3494,3.3522,3.3515,3.356,3.3659,3.3524,3.3524,3.3545,3.3772,3.3793,3.3811,3.3644,3.3647,3.3649,3.3768,0,3.3175,3.3288,3.3282,3.3388,3.344,3.3411,3.3467,3.3495,3.3503,3.3548,3.3556,3.3608,3.3568,3.3584,3.3628,3.3637,3.3704,3.3629,3.3691,3.3693,3.368,3.3832,3.3855,3.3966,3.3784,3.3786,3.3788,0,3.3333,3.3373,3.3484,3.3511,3.3532,3.3583,3.3626,3.3671,3.3701,3.3703,3.3734,3.3719,3.3783,3.3729,3.3816,3.3766,3.3791,3.3799,3.3804,3.3807,3.3745,3.3837,3.4001,3.4017,3.3813,3.3811,3.3809,0,3.3437,3.3519,3.3595,3.3613,3.3648,3.3684,3.3699,3.3727,3.3756,3.3795,3.3813,3.3859,3.3883,3.3919,3.3915,3.3877,3.4004,3.395,3.4005,3.4005,3.4031,3.4029,3.4199,3.4053,3.4053,3.4052,3.4052,0,3.3573,3.3641,3.3641,3.3688,3.3763,3.3755,3.383,3.3842,3.3866,3.3914,3.3892,3.3937,3.3931,3.3977,3.3975,3.4046,3.4058,3.406,3.4058,3.4061,3.406,3.4075,3.4066,3.4057,3.4056,3.4055,3.4054,0,3.3701,3.3704,3.3784,3.381,3.3818,3.3872,3.3893,3.3936,3.3942,3.4002,3.4016,3.4024,3.4076,3.4077,3.4137,3.4135,3.4221,3.4213,3.4211,3.4208,3.4262,3.4256,3.4446,3.4469,3.431,3.4312,3.4313,0,3.3786,3.3838,3.3868,3.3898,3.3916,3.3965,3.3994,3.3989,3.402,3.4058,3.4096,3.4146,3.4185,3.4269,3.428,3.4325,3.4315,3.4378,3.4321,3.4321,3.4312,3.4307,3.4311,3.4388,3.439,3.4391,3.4393,0,3.3936,3.3934,3.3977,3.4021,3.4056,3.4091,3.4122,3.4148,3.4146,3.4182,3.4234,3.4264,3.4324,3.4373,3.4416,3.4431,3.4411,3.4411,3.4425,3.4426,3.4422,3.4422,3.4237,3.4406,3.4404,3.4403,3.4403,3.4402,3.4042,3.4086,3.4113,3.4161,3.4184,3.4214,3.4255,3.4265,3.4309,3.4356,3.4351,3.4408,3.4436,3.4492,3.4511,3.4555,3.4533,3.4555,3.456,3.4565,3.4569,3.4417,3.4563,3.4563,3.4563,3.4562,3.4562,0,3.4188,3.4204,3.4249,3.4292,3.433,3.4309,3.4342,3.4374,3.4425,3.4453,3.4491,3.455,3.4596,3.4611,3.4656,3.4688,3.468,3.47,3.4696,3.4699,3.4588,3.4569,3.4706,3.4706,3.4706,3.4706,3.4705,3.4705,3.4268,3.4339,3.4341,3.4422,3.4438,3.4493,3.4514,3.454,3.4562,3.4628,3.4667,3.4676,3.4698,3.4744,3.4785,3.4788,3.4804,3.4828,3.4826,3.4722,3.4707,3.4693,3.4675,3.4832,3.4832,3.4933,3.4934,3.4935]},{"header":{"parameterUnit":"m.s-1","parameterCategory":1,"la1":30.2991,"la2":30.254,"lo1":-89.0895,"lo2":-89.0444,"dy":0.0017,"dx":0.0017,"nx":28,"ny":28,"refTime":"2024-05-26T21:00:00:Z","depth":0,"parameterNumber":3,"parameterNumberName":"V-component_of_WINDS"},"data":[0,0,0,0,0,0,0,0,0,0,0,0,0,0,0,0,0,0,0,0,0,0,0,0,0,0,0,0,0,0,0,0,0,0,0,0,0,0,0,0,0,0,0,0,0,0,0,0,0,0,0,0,0,0,0,0,0,0,1.7266,1.7266,0,1.7346,1.7347,1.7348,1.7347,1.7345,1.7344,1.7343,1.7426,1.7429,1.7433,0,0,0,0,0,0,0,0,0,0,0,0,0,1.711,1.7113,1.7265,1.7266,1.7267,1.7346,1.7347,1.7348,1.7347,1.7345,1.7344,1.7343,1.7425,1.7429,1.7433,0,0,0,0,0,0,0,0,0,0,0,0,0,1.7183,1.7114,1.7265,1.7276,1.7278,1.7346,1.7347,1.7348,1.7347,1.7345,1.7344,1.7342,1.7424,1.7429,1.7433,1.7495,0,0,1.7448,1.745,0,0,0,0,0,0,0,0,1.7179,1.7189,1.7274,1.7276,1.7278,1.7335,1.7323,1.7398,1.7347,1.7321,1.7343,1.7341,1.7397,1.7404,1.7423,1.7499,1.7503,1.7449,1.7452,1.7454,1.7455,0,0,0,0,0,0,0,1.7174,1.7185,1.7297,1.7275,1.7277,1.7277,1.7286,1.7337,1.7367,1.7323,1.7323,1.7333,1.7398,1.7418,1.7425,1.7504,1.7448,1.7453,1.7456,1.7458,1.7634,1.7636,0,0,0,0,0,0,1.7167,1.7181,1.7295,1.73,1.7223,1.7281,1.7291,1.7318,1.7367,1.7372,1.7334,1.7332,1.7411,1.7419,1.7428,1.7503,1.7454,1.7458,1.7461,1.7633,1.7635,1.7637,0,0,0,0,0,0,1.7163,1.7177,1.7291,1.724,1.7255,1.7286,1.7316,1.732,1.734,1.7375,1.738,1.7349,1.741,1.7421,1.7478,1.7506,1.746,1.7465,1.763,1.7633,1.7636,1.7654,0,0,0,0,0,0,1.7159,1.7175,1.72,1.7241,1.7258,1.7341,1.7318,1.7323,1.7349,1.7347,1.739,1.7396,1.7409,1.7471,1.7483,1.7511,1.7468,1.7628,1.7632,1.7635,1.7651,1.7657,1.7662,0,0,0,0,0,1.7153,1.7202,1.7201,1.7215,1.7288,1.7343,1.7352,1.7367,1.7351,1.7375,1.7397,1.7394,1.75,1.7477,1.749,1.7521,1.7626,1.7631,1.7635,1.7648,1.7656,1.7662,0,0,0,0,0,0,1.7164,1.7208,1.7207,1.727,1.7303,1.7342,1.7374,1.7374,1.7412,1.7409,1.7425,1.7435,1.7492,1.7512,1.7485,1.7582,1.7561,1.7568,1.7567,1.7574,1.758,1.7574,1.7472,0,0,0,0,0,1.7173,1.7213,1.725,1.7302,1.7318,1.7343,1.7367,1.7375,1.741,1.7423,1.7449,1.7483,1.7523,1.755,1.7589,1.7653,1.7662,1.7681,1.7686,1.769,1.7696,1.7731,1.7739,1.765,1.765,1.765,0,0,1.7194,1.7223,1.7247,1.7305,1.7331,1.7372,1.7355,1.7399,1.743,1.743,1.7486,1.7506,1.7544,1.7605,1.7633,1.7623,1.7723,1.7696,1.7699,1.7702,1.7736,1.7744,1.7752,1.7653,1.7652,1.7652,0,0,1.7252,1.7278,1.7324,1.735,1.7389,1.7405,1.7416,1.7456,1.7469,1.7525,1.7526,1.7562,1.7632,1.7659,1.7682,1.7748,1.7747,1.7761,1.7789,1.7823,1.783,1.7836,1.7859,1.7867,1.7766,1.7766,1.7766,0,1.7272,1.7334,1.7348,1.7392,1.7417,1.7419,1.7465,1.749,1.754,1.7557,1.7546,1.7633,1.7659,1.7725,1.7741,1.776,1.7773,1.7756,1.7827,1.7834,1.784,1.7862,1.7871,1.7768,1.7768,1.7767,1.7767,0,1.7357,1.74,1.7432,1.748,1.7509,1.7554,1.7574,1.7602,1.7607,1.7624,1.768,1.7711,1.7756,1.7772,1.7778,1.784,1.7832,1.7824,1.7803,1.785,1.7871,1.788,1.777,1.7769,1.7769,1.7768,0,0,1.7425,1.7479,1.749,1.7512,1.7554,1.7588,1.7632,1.7676,1.7699,1.7733,1.7771,1.7829,1.7822,1.7847,1.7856,1.7885,1.7935,1.7873,1.7874,1.7883,1.8004,1.801,1.802,1.7934,1.7936,1.7937,1.8,0,1.7488,1.7567,1.758,1.765,1.7689,1.769,1.7729,1.7759,1.7776,1.7812,1.783,1.7871,1.7858,1.7873,1.7902,1.7923,1.796,1.7919,1.797,1.7971,1.796,1.8031,1.8038,1.8096,1.8009,1.801,1.8011,0,1.7571,1.7607,1.768,1.7717,1.7734,1.7768,1.7809,1.7843,1.7877,1.7887,1.7915,1.792,1.7966,1.7943,1.8006,1.7978,1.7999,1.8013,1.8015,1.8021,1.7994,1.8038,1.8115,1.8123,1.8025,1.8024,1.8023,0,1.7613,1.7679,1.7731,1.775,1.7793,1.7818,1.7837,1.7869,1.7894,1.793,1.7946,1.7986,1.8008,1.8039,1.8055,1.8036,1.8117,1.8095,1.8126,1.8126,1.8143,1.8142,1.8224,1.8157,1.8157,1.8157,1.8157,0,1.7681,1.7726,1.7751,1.7783,1.7833,1.7847,1.7896,1.7914,1.7943,1.7978,1.7982,1.8015,1.8033,1.8069,1.8082,1.8132,1.8142,1.8151,1.8154,1.8151,1.815,1.8165,1.8162,1.8159,1.8159,1.8158,1.8158,0,1.7736,1.7755,1.7812,1.7848,1.7858,1.7893,1.7924,1.7955,1.7971,1.8016,1.8027,1.8052,1.8095,1.8113,1.8165,1.8173,1.8231,1.823,1.8219,1.822,1.825,1.8247,1.8345,1.8359,1.8283,1.8283,1.8284,0,1.7779,1.7813,1.7853,1.7876,1.7896,1.7935,1.796,1.7975,1.8001,1.8041,1.8067,1.8109,1.8144,1.8211,1.8234,1.8274,1.8275,1.8306,1.8281,1.8276,1.8275,1.8272,1.8276,1.8311,1.8312,1.8313,1.8313,0,1.7852,1.7859,1.7895,1.7934,1.7964,1.7996,1.8027,1.8046,1.8065,1.8094,1.8137,1.8164,1.8217,1.8258,1.8299,1.8319,1.8319,1.8321,1.833,1.8327,1.8319,1.8324,1.8232,1.8319,1.8318,1.8318,1.8317,1.8317,1.7902,1.7932,1.7964,1.8004,1.8029,1.8057,1.8088,1.8107,1.8143,1.8187,1.8193,1.8239,1.8271,1.8325,1.8347,1.8382,1.8374,1.8388,1.8391,1.8395,1.8396,1.8313,1.839,1.839,1.839,1.839,1.8389,0,1.7975,1.7995,1.8032,1.8074,1.8105,1.8102,1.8136,1.8162,1.8202,1.8232,1.8266,1.8314,1.8354,1.838,1.842,1.8444,1.8445,1.8454,1.8452,1.8457,1.8401,1.8389,1.8452,1.8452,1.8452,1.8452,1.8452,1.8452,1.8016,1.8067,1.8077,1.814,1.816,1.8205,1.8224,1.825,1.8274,1.8328,1.8361,1.8377,1.8405,1.8447,1.8484,1.849,1.8505,1.8514,1.852,1.8467,1.8461,1.8455,1.8443,1.8517,1.8517,1.8573,1.8573,1.8574]}]]